Weather History for KPNC - January, 2013

Change the Weather History Date:

Tuesday, January 22, 2013

  Actual Average Record
Temperature  
Mean Temperature 36 °F -  
Max Temperature 52 °F 54 °F 80 °F (1967)
Min Temperature 21 °F 30 °F 6 °F (1962)
Degree Days  
Heating Degree Days 28    
Moisture  
Dew Point 18 °F    
Average Humidity 52    
Maximum Humidity 74    
Minimum Humidity 28    
Precipitation  
Precipitation 0.00 in - - ()
Sea Level Pressure  
Sea Level Pressure 30.25 in    
Wind  
Wind Speed 7 mph (ESE)    
Max Wind Speed 13 mph    
Max Gust Speed 16 mph    
Visibility 10 miles    
Events      
Averages and records for this station are not official NWS values.
T = Trace of Precipitation, MM = Missing Value Source: NWS Daily Summary

Daily Weather History Graph

Daily Weather History Graph

Search for Another Location

Airport or City:

Trip Planner

Search our weather history database for the weather conditions in past years. The results will help you decide how hot, cold, wet, or windy it might be!

Date:

Astronomy

Jan. 22, 2013 Rise Set
Actual Time 7:36 AM CST 5:43 PM CST
Civil Twilight 7:09 AM CST 6:11 PM CST
Nautical Twilight 6:37 AM CST 6:42 PM CST
Astronomical Twilight 6:06 AM CST 7:13 PM CST
Moon 2:08 PM CST (1/22) 3:58 AM CST (1/22)
Length of Visible Light 11h 02m
Length of Day
10h 06m
Waxing Gibbous, 83% of the Moon is Illuminated
Jan 22
Waxing Gibbous
Jan 26
Full
Feb 3
Last Quarter
Feb 10
New
Feb 17
First Quarter

Hourly Weather History & Observations

Time (CST) Temp. Windchill Dew Point Humidity Pressure Visibility Wind Dir Wind Speed Gust Speed Precip Events Conditions
1:53 AM 25.0 °F 15.5 °F 15.1 °F 66% 30.31 in 10.0 mi ESE 9.2 mph - N/A   Clear
2:53 AM 23.0 °F 14.7 °F 14.0 °F 68% 30.30 in 10.0 mi ESE 6.9 mph - N/A   Clear
3:53 AM 21.9 °F 14.5 °F 12.9 °F 68% 30.31 in 10.0 mi ENE 5.8 mph - N/A   Clear
5:53 AM 21.0 °F 14.6 °F 14.0 °F 74% 30.30 in 10.0 mi ESE 4.6 mph - N/A   Clear
7:53 AM 21.9 °F 14.5 °F 12.9 °F 68% 30.30 in 10.0 mi East 5.8 mph - N/A   Clear
8:53 AM 25.0 °F 18.1 °F 14.0 °F 63% 30.29 in 10.0 mi SE 5.8 mph - N/A   Clear
9:53 AM 30.9 °F 21.2 °F 16.0 °F 54% 30.27 in 10.0 mi SSE 12.7 mph - N/A   Clear
10:53 AM 35.1 °F 30.1 °F 16.0 °F 46% 30.30 in 10.0 mi ESE 5.8 mph - N/A   Clear
11:53 AM 41.0 °F 38.0 °F 17.1 °F 38% 30.28 in 10.0 mi ESE 4.6 mph - N/A   Clear
12:53 PM 45.0 °F 40.6 °F 19.0 °F 36% 30.22 in 10.0 mi South 8.1 mph - N/A   Clear
1:53 PM 48.9 °F - 19.0 °F 31% 30.18 in 10.0 mi SE 4.6 mph 16.1 mph N/A   Clear
2:53 PM 51.1 °F - 19.9 °F 29% 30.18 in 10.0 mi East 6.9 mph - N/A   Clear
3:53 PM 52.0 °F - 19.9 °F 28% 30.17 in 10.0 mi East 5.8 mph - N/A   Clear
4:53 PM 52.0 °F - 21.0 °F 30% 30.17 in 10.0 mi SE 6.9 mph - N/A   Clear
5:53 PM 45.0 °F 41.2 °F 21.0 °F 39% 30.19 in 10.0 mi East 6.9 mph - N/A   Clear
7:53 PM 41.0 °F 36.4 °F 23.0 °F 49% 30.19 in 10.0 mi East 6.9 mph - N/A   Clear
8:53 PM 39.0 °F 35.7 °F 23.0 °F 53% 30.21 in 10.0 mi East 4.6 mph - N/A   Clear
9:53 PM 30.9 °F 26.2 °F 21.0 °F 67% 30.24 in 10.0 mi NE 4.6 mph - N/A   Clear
10:53 PM 33.1 °F 28.7 °F 23.0 °F 66% 30.24 in 10.0 mi ENE 4.6 mph - N/A   Unknown
11:53 PM 30.0 °F 26.5 °F 21.9 °F 72% 30.25 in 10.0 mi East 3.5 mph - N/A   Clear